Location: Brachbach
(49.1847°N, 9.7240°E)
Time: 23:18:45
(UTC+00:00)

Meteor 2-5 Rocket - Pass Details

Date: 12 August 2024
Orbit: 833 x 910 km, 81.2° (Epoch: 07 September)

Event Time Altitude Azimuth Distance (km) Brightness Sun altitude
Rises 00:26:45 0° 357° (N) 3,456 8.1 -24.6°
Reaches altitude 10° 00:30:02 10° 16° (NNE) 2,530 7.3 -24.4°
Maximum altitude 00:33:53 18° 59° (ENE) 2,025 6.2 -24.2°
Drops below altitude 10° 00:37:46 10° 101° (E) 2,555 6.3 -24.0°
Sets 00:41:05 0° 120° (ESE) 3,504 6.8 -23.8°
